GFSMA_850_thetae_021.txt.gz
Theta_e
311 309 305 304 305 305 304 305 304 304 305 305 305 305 306 305 305 304 304 304 303 303 301 301 302 304 309 316 318 315 311 305 304 304 304 304 304 304 304 303 304 307 312
312 309 307 304 304 305 304 304 304 304 304 304 304 305 305 304 304 303 303 303 303 302 301 301 303 307 312 311 308 311 312 305 305 305 304 305 304 304 304 304 304 303 303
313 311 308 305 303 304 304 303 303 303 303 303 304 304 303 303 303 303 302 302 301 301 300 305 314 314 313 309 309 313 311 305 305 303 303 304 304 303 303 303 303 303 303
314 312 308 306 303 303 304 303 303 303 302 302 303 303 303 303 303 302 302 301 301 300 300 300 302 304 307 308 313 312 305 309 304 301 301 300 301 301 301 302 302 302 302
315 314 310 307 304 303 303 303 302 302 302 302 302 302 302 302 302 302 301 301 300 299 299 298 299 300 300 302 306 306 302 298 297 298 298 299 299 299 299 300 300 300 301
315 315 312 308 305 302 302 302 302 301 301 301 301 301 301 301 301 301 301 300 299 298 297 297 296 296 296 296 295 297 299 299 297 297 297 297 298 298 298 299 299 299 299
316 315 314 310 307 304 301 301 301 300 300 300 300 300 300 300 300 301 300 299 298 297 296 296 295 295 295 294 295 304 303 299 297 297 296 296 296 297 297 297 298 298 298
315 315 314 313 310 306 302 300 300 300 299 300 300 300 299 298 299 299 299 299 298 297 296 295 295 294 293 294 295 296 296 296 295 295 295 295 296 296 297 297 297 297 297
313 314 314 314 312 309 306 302 300 299 300 300 299 300 301 301 300 298 298 297 297 296 296 295 294 293 292 293 294 294 294 293 294 294 294 294 295 295 295 295 296 296 296
310 311 312 313 314 312 307 304 301 299 299 299 298 300 301 302 301 298 296 295 295 294 295 295 294 294 292 293 294 293 292 292 292 293 293 294 294 294 295 295 295 295 296
305 306 308 310 310 311 311 308 304 300 299 298 298 299 299 300 301 301 298 297 295 295 295 294 294 293 292 293 293 293 293 292 292 293 293 293 294 294 294 294 294 295 295
303 303 303 305 307 308 309 308 306 302 300 299 298 297 298 299 300 300 300 299 299 298 297 296 294 293 292 292 292 292 292 292 292 293 293 293 294 294 294 294 294 294 295
301 301 301 302 303 305 306 306 306 304 301 299 298 298 298 298 298 299 299 299 298 296 296 296 295 294 293 293 293 292 292 292 292 292 293 293 293 293 293 294 294 294 293
300 300 300 300 301 301 302 303 304 303 300 299 298 297 297 297 297 298 299 299 296 296 296 297 296 294 293 293 293 292 292 291 292 292 292 292 293 293 293 293 293 293 293
298 299 299 298 298 299 299 300 301 301 301 300 299 298 297 297 296 297 297 298 298 297 295 296 296 296 294 292 292 291 291 291 292 292 292 292 292 292 292 292 292 292 292
299 298 298 298 298 297 297 299 299 299 299 299 299 299 298 296 296 296 296 297 297 297 297 296 298 297 295 293 292 291 291 291 292 292 292 292 292 292 291 291 291 291 291
299 300 299 298 297 297 297 296 297 297 298 299 298 298 298 298 296 295 295 295 296 296 296 295 295 296 295 293 292 291 291 292 292 292 292 292 291 291 291 290 290 289 289
296 297 299 299 298 298 296 296 296 296 296 296 297 298 297 297 296 295 295 295 295 295 294 295 295 295 295 293 292 291 290 291 291 292 292 292 292 291 290 290 289 289 289
291 293 294 296 299 299 297 296 296 295 296 296 294 295 296 297 297 296 295 294 294 294 294 293 294 294 294 293 292 291 290 290 290 290 290 291 291 290 290 289 288 288 288
288 288 290 290 292 296 298 298 296 295 295 295 295 295 293 294 296 297 295 294 294 294 294 293 293 293 293 292 291 291 290 290 289 289 289 289 289 289 289 288 287 287 288
286 287 287 287 288 288 290 294 296 296 295 294 294 294 294 294 294 294 296 295 294 293 293 293 292 292 291 291 291 291 290 289 289 289 289 289 289 289 288 287 286 286 287
286 286 286 286 286 286 286 286 288 294 295 295 294 293 293 293 294 293 293 293 295 293 293 293 292 292 292 292 292 291 290 288 288 289 288 288 288 288 288 287 286 286 286
285 285 285 286 286 286 285 285 285 286 292 294 295 293 291 292 292 293 293 291 291 293 292 293 293 293 293 293 293 291 290 289 289 288 289 288 288 287 287 286 286 286 286
285 285 285 285 285 285 285 285 285 285 285 289 293 293 290 289 290 292 291 290 290 290 291 290 291 292 292 292 293 292 291 288 287 287 287 288 287 287 287 287 286 285 285
284 285 285 285 285 286 285 285 285 285 284 285 287 292 292 288 288 287 289 289 290 290 290 289 289 290 290 290 290 290 288 286 285 286 287 287 287 287 287 286 286 285 285
283 283 284 285 285 285 286 285 285 284 284 284 285 287 293 293 288 287 286 287 286 288 288 288 286 287 287 288 289 289 288 287 286 285 286 286 286 285 284 284 284 284 283

GFSMA_850_thetae_024.txt.gz
Theta_e
317 316 314 310 305 305 305 305 305 305 305 305 306 306 306 306 306 305 305 304 304 303 303 303 302 304 311 316 319 318 314 306 306 305 304 305 305 304 304 304 304 305 312
319 316 316 311 308 305 304 306 305 305 305 305 306 306 306 306 306 306 305 304 304 303 302 302 302 308 313 313 310 316 312 305 307 304 305 306 306 305 305 304 304 303 303
321 318 315 312 309 305 304 305 304 304 304 305 305 305 306 306 306 306 305 304 304 303 302 301 311 314 314 308 307 314 310 305 308 303 304 307 308 308 307 304 304 303 304
321 318 316 314 310 307 304 304 304 304 304 304 304 304 304 305 305 305 304 304 304 304 303 301 302 305 306 310 312 311 308 306 305 301 302 302 302 304 303 302 302 302 302
322 320 317 316 313 309 306 303 303 303 303 303 303 303 303 303 303 304 304 304 303 302 301 301 300 301 303 304 309 310 305 301 299 298 299 299 299 299 299 299 300 300 300
322 321 319 317 315 310 307 303 303 302 302 302 302 302 302 303 302 303 303 303 302 301 301 300 299 299 299 298 300 303 301 299 297 297 298 298 298 298 298 298 299 299 300
321 320 319 317 315 313 308 305 302 302 301 300 300 300 301 301 302 302 302 302 302 301 300 299 298 297 297 296 296 298 304 300 298 297 297 298 297 297 298 298 298 299 299
318 318 318 316 314 313 309 305 302 301 300 300 301 300 299 299 300 301 301 302 301 300 300 298 297 296 296 296 296 297 299 298 297 296 296 296 297 297 297 297 298 298 298
315 315 315 315 314 312 310 307 303 301 300 300 300 300 299 300 300 299 299 300 300 300 299 299 297 295 295 295 295 295 296 295 296 295 296 296 296 296 296 296 297 297 297
312 312 312 312 312 311 311 310 306 302 300 299 299 300 300 302 302 300 299 299 298 299 299 299 297 295 294 295 296 295 295 295 295 295 295 295 295 295 296 296 296 296 297
304 304 307 309 309 309 308 308 307 303 300 299 299 300 299 300 302 302 302 301 300 300 299 297 296 294 294 295 296 295 295 294 294 294 294 294 294 294 295 295 295 295 296
302 302 302 303 305 306 306 306 306 305 303 300 299 298 299 299 300 301 301 301 301 301 300 300 298 296 293 295 295 295 295 294 294 294 294 294 294 294 294 294 294 294 295
300 300 301 301 301 302 303 304 304 303 304 302 299 299 298 298 298 299 300 300 300 299 299 299 299 298 295 296 296 296 295 294 293 293 293 293 293 293 294 294 294 295 295
299 299 299 299 299 299 299 300 301 301 302 302 301 299 298 298 298 298 298 299 299 298 299 300 300 299 299 297 296 295 294 294 293 292 292 292 292 293 293 294 294 294 294
300 300 299 298 298 298 297 298 298 299 299 299 300 300 298 297 297 297 297 297 298 298 298 298 298 299 299 299 298 296 294 293 292 292 292 292 292 293 294 294 294 294 293
296 297 299 299 299 298 297 296 296 297 297 297 297 298 298 297 297 297 297 296 296 297 298 298 298 298 298 298 298 295 294 293 292 291 291 292 292 293 294 294 294 293 293
291 291 293 295 297 298 298 297 296 295 295 296 296 296 296 296 296 296 296 296 295 296 296 297 297 297 297 297 297 295 293 293 292 291 292 292 292 292 292 292 292 292 292
289 289 289 290 290 293 296 297 297 296 294 294 294 294 295 295 295 295 295 295 295 295 295 296 296 296 296 297 297 296 294 292 291 291 292 292 292 292 292 292 291 291 290
287 287 287 287 288 288 289 291 294 296 296 295 294 293 294 294 294 294 294 295 295 295 294 294 295 296 295 296 296 295 293 291 290 290 291 291 292 292 292 291 290 290 290
286 286 286 286 286 286 286 287 288 289 293 295 295 296 295 293 293 293 294 293 294 294 294 293 293 294 295 295 295 295 293 292 291 290 291 291 291 292 292 292 291 290 289
286 286 286 286 286 286 286 286 286 286 286 287 291 295 294 294 293 292 292 292 292 292 293 293 292 292 293 293 293 294 294 293 292 290 290 291 291 291 291 292 291 290 289
286 286 286 286 286 286 286 286 285 285 285 285 286 286 290 295 293 291 291 290 291 291 292 291 292 292 292 293 293 293 293 292 290 290 290 290 290 291 291 290 290 289 289
285 285 285 285 286 286 286 286 285 285 285 285 285 285 285 286 290 294 292 290 290 290 290 291 291 291 291 292 293 292 292 293 294 294 292 290 289 289 290 290 289 287 288
284 284 284 284 284 284 285 285 285 285 285 285 285 285 285 285 285 288 292 290 291 290 289 289 290 291 290 290 292 293 294 293 292 289 289 290 289 289 289 289 289 287 286
280 281 282 283 283 284 284 284 283 283 284 285 285 285 285 285 285 285 288 290 291 291 293 290 289 289 289 289 289 290 290 289 288 288 288 289 288 288 288 288 287 286 285
276 276 277 278 279 280 282 282 281 279 280 282 284 285 285 285 285 285 285 288 289 291 288 289 289 289 289 289 288 289 289 290 289 287 288 287 287 287 285 286 286 285 285

GFSMA_850_thetae_030.txt.gz
Theta_e
333 332 327 322 324 324 317 310 305 305 305 306 307 307 308 308 308 308 308 308 307 307 306 305 305 305 305 304 306 309 310 309 311 306 310 312 309 308 310 309 311 311 317
333 331 330 323 320 320 321 315 307 304 304 304 305 306 306 307 307 307 307 307 307 307 307 306 305 305 312 317 318 317 311 310 308 305 306 308 307 307 306 305 304 305 310
327 329 328 330 325 325 323 320 312 305 304 303 304 305 305 305 306 307 307 307 307 307 306 306 305 305 306 312 311 313 309 307 307 304 305 308 308 307 304 304 304 304 305
329 327 326 328 328 328 326 323 318 308 305 304 303 303 304 304 305 305 306 306 306 306 306 305 304 305 307 305 308 316 309 307 308 303 306 310 311 309 305 304 304 304 304
326 326 326 326 326 326 326 324 320 313 307 305 304 303 302 303 303 304 305 305 305 305 305 305 304 304 304 305 308 314 311 311 307 302 303 305 306 305 303 302 302 303 303
325 325 325 326 325 324 324 323 320 316 312 308 306 303 301 301 302 303 303 304 304 304 304 304 303 303 303 303 308 312 312 309 303 301 299 299 299 299 299 300 299 300 300
323 322 323 322 322 322 321 320 320 317 315 311 308 303 301 300 301 302 302 302 303 303 303 303 302 302 302 302 301 302 305 305 304 300 299 298 297 297 297 298 298 298 298
319 319 319 319 318 318 318 317 316 316 314 312 308 304 300 300 300 300 301 302 303 303 303 303 303 302 302 301 300 300 300 305 302 299 298 297 297 297 296 296 296 296 297
316 316 316 316 315 316 315 314 313 313 312 311 309 304 299 299 300 301 301 301 302 302 302 302 302 302 302 301 300 298 297 300 301 298 297 296 296 296 296 296 296 296 296
312 313 312 312 312 312 312 311 310 309 309 308 307 305 302 299 299 300 301 301 301 301 302 302 302 302 302 302 301 299 297 297 298 297 296 296 295 295 295 295 296 296 296
305 305 305 308 308 308 308 307 307 307 306 306 305 304 303 301 299 298 299 300 300 301 301 301 302 301 301 301 301 300 298 297 296 296 295 295 294 294 294 295 295 295 295
301 301 302 302 302 302 302 304 304 304 304 303 304 303 301 300 299 298 298 298 298 299 300 301 301 302 301 301 301 300 298 297 297 296 295 295 294 293 293 294 294 294 295
299 299 299 300 300 300 299 300 300 301 302 302 301 302 303 301 299 299 298 297 298 298 299 299 300 300 301 301 301 301 300 298 297 297 296 295 294 293 292 292 293 294 294
292 291 292 293 296 298 299 298 298 298 298 300 300 300 300 301 300 300 299 297 297 297 297 298 299 299 300 300 300 300 299 299 299 297 296 295 295 294 293 293 293 293 293
289 289 288 288 289 289 291 293 297 297 297 297 297 298 300 300 300 299 299 298 297 296 296 296 297 297 298 299 299 299 299 299 298 298 297 296 294 293 293 292 293 293 293
288 287 287 287 287 287 287 288 288 289 291 294 296 296 295 297 298 298 298 298 298 297 295 296 296 296 296 297 297 298 298 298 297 296 296 295 295 294 293 292 292 292 293
287 287 287 287 287 287 287 287 287 287 287 288 288 288 293 295 295 295 296 296 296 296 296 296 296 296 296 296 296 296 297 298 298 297 296 295 294 293 293 292 292 292 292
287 287 287 287 287 287 287 287 287 286 286 286 287 287 287 287 290 294 294 294 295 295 295 295 295 296 296 296 296 296 296 296 297 297 296 295 294 293 292 292 291 291 292
286 286 286 286 286 286 286 286 286 286 286 286 286 286 286 286 286 286 287 292 294 293 293 294 294 294 295 295 295 295 295 296 296 296 296 295 294 293 292 291 291 291 292
285 285 285 285 285 285 285 285 284 284 285 285 285 285 285 286 286 286 285 286 286 290 293 292 293 293 293 294 294 295 295 295 295 295 296 295 295 293 292 291 291 291 291
284 284 284 284 284 283 283 283 283 282 283 283 284 284 285 285 285 285 285 285 285 285 286 291 292 291 292 293 293 294 294 294 294 295 295 295 295 295 293 292 291 290 291
283 283 282 282 282 282 281 280 279 280 280 281 282 282 283 283 284 285 284 285 285 285 285 285 288 291 292 291 292 292 293 293 293 294 294 294 294 294 294 292 291 290 291
282 282 282 281 282 282 281 278 278 278 278 278 279 280 280 281 282 282 283 284 284 285 285 284 285 286 290 291 290 291 292 292 293 292 292 293 294 294 294 294 292 291 291
281 281 281 280 280 280 277 276 274 275 276 276 276 277 277 278 279 279 280 281 282 283 284 285 285 285 285 286 291 290 290 291 291 291 291 291 293 294 294 294 293 292 290
280 279 278 277 276 275 273 272 271 272 273 274 273 273 273 274 275 277 278 279 280 281 283 283 284 285 285 285 286 290 290 288 288 289 289 289 289 290 291 292 293 293 290
278 276 275 273 272 271 271 271 270 270 270 271 271 271 272 274 275 276 277 278 279 280 281 282 283 283 284 285 284 288 290 289 289 288 288 288 288 288 287 289 291 292 290

GFSMA_850_thetae_033.txt.gz
Theta_e
330 330 329 328 330 328 326 325 318 309 304 303 303 304 305 306 307 307 307 307 308 307 307 307 307 306 306 305 305 306 306 307 309 308 308 309 308 307 307 311 315 320 321
327 327 327 327 328 329 322 322 322 316 307 304 303 303 304 305 306 307 307 307 307 307 307 307 306 305 306 307 310 314 311 309 309 306 308 313 312 309 308 308 307 307 311
329 328 327 327 326 326 326 324 324 322 317 307 304 303 303 304 305 306 306 307 307 307 307 307 306 306 307 319 319 317 313 309 307 306 305 311 310 310 307 305 305 305 306
327 327 327 326 324 324 326 324 324 324 322 317 307 304 303 302 303 304 305 305 306 306 306 306 306 305 305 306 308 308 313 308 309 306 306 310 310 311 307 304 305 305 305
326 325 326 325 324 324 326 326 323 322 323 319 312 306 304 303 302 302 303 304 304 305 305 305 305 305 305 305 305 308 314 309 308 306 303 305 308 308 304 303 303 304 305
323 323 324 324 324 324 327 325 322 320 320 319 314 310 308 306 303 302 302 303 303 304 304 304 305 305 305 304 305 309 316 313 311 304 301 300 300 300 300 300 300 300 301
320 321 322 323 323 322 322 322 322 318 317 316 315 314 312 309 306 303 301 301 302 303 303 303 303 304 304 304 303 305 312 313 311 307 302 300 299 298 298 298 298 299 299
318 318 319 320 319 319 318 318 317 317 315 314 314 312 310 310 309 306 302 301 301 301 302 302 302 302 303 303 303 303 302 310 310 308 301 299 298 298 298 297 297 297 298
314 314 315 315 317 317 315 316 314 312 312 311 311 309 306 302 300 300 300 301 300 300 300 301 301 302 302 302 301 301 301 301 308 309 302 298 297 296 296 296 296 296 296
307 308 310 311 311 311 311 310 311 310 309 309 308 307 306 305 303 302 303 301 299 299 299 299 300 301 301 301 300 300 300 300 299 306 301 298 297 296 295 295 295 295 296
301 301 302 302 304 306 305 306 306 307 307 307 306 305 304 302 301 299 298 300 301 300 299 299 299 299 300 300 300 300 299 298 297 297 299 298 297 296 295 295 294 296 298
299 298 298 299 299 300 300 300 299 300 302 304 305 304 303 302 300 299 298 298 298 299 299 298 298 298 299 300 300 300 299 298 297 297 297 297 296 296 295 294 294 294 295
292 292 291 291 291 292 294 297 298 297 297 298 301 302 303 302 301 301 300 299 299 299 299 299 300 299 298 299 299 300 300 299 298 297 296 296 296 295 295 294 294 294 294
290 289 289 289 289 288 288 289 289 289 292 295 296 297 298 299 300 300 300 299 298 298 298 299 300 300 299 298 298 299 299 299 299 298 297 296 295 294 294 294 293 293 293
289 289 288 289 289 288 288 288 288 288 288 287 287 288 292 294 295 296 298 299 298 296 297 298 298 300 300 300 298 298 298 298 298 297 296 296 295 295 294 294 293 293 293
288 288 288 288 288 288 287 287 287 287 287 287 287 287 287 287 288 292 294 295 296 297 296 297 297 298 299 298 298 297 297 297 297 297 296 296 295 294 294 294 293 292 292
288 287 287 287 287 287 286 286 286 286 286 286 286 286 287 287 287 286 287 289 293 294 294 296 296 296 297 298 299 298 297 296 296 297 297 297 296 295 294 293 293 292 292
286 286 286 286 285 285 285 285 285 285 285 285 285 286 286 286 286 286 286 286 286 286 290 292 294 294 294 295 296 298 298 297 296 296 296 296 296 296 295 294 293 292 291
285 285 285 285 285 284 284 284 284 284 284 284 284 284 285 285 285 285 285 285 286 286 285 285 286 289 294 294 293 294 296 297 297 296 296 296 296 296 295 295 294 292 292
285 285 285 284 284 284 283 283 282 282 283 283 283 283 283 283 283 284 284 284 285 285 285 285 285 285 286 289 293 293 293 294 296 296 296 295 295 295 296 296 295 293 292
284 283 283 283 282 282 282 282 282 282 282 283 283 283 283 283 283 282 282 283 283 283 284 284 285 285 285 285 286 291 294 293 294 294 295 296 295 295 295 295 295 294 292
283 283 282 282 283 282 282 281 280 279 279 279 280 281 282 281 281 281 281 281 282 283 284 284 284 284 285 285 285 286 288 292 291 292 293 294 295 295 294 294 295 295 294
282 282 283 283 282 281 280 279 278 276 276 276 275 275 276 276 277 277 278 278 279 280 281 283 284 285 286 285 285 285 285 287 291 293 291 292 293 295 295 294 294 294 294
282 282 282 281 280 279 277 276 274 273 273 272 272 272 272 273 273 274 274 275 276 277 279 279 281 282 282 283 285 285 284 285 287 289 291 290 290 291 292 294 294 294 294
282 281 280 280 278 277 275 274 272 271 271 270 270 270 271 271 272 273 274 275 275 276 276 277 278 280 282 283 284 285 286 287 288 288 289 290 290 289 289 291 292 293 292
280 280 279 277 276 275 274 272 270 269 269 269 270 270 270 271 272 273 274 274 274 274 275 276 277 278 279 281 283 284 286 287 287 287 287 288 289 289 288 289 289 290 291

GFSMA_850_thetae_036.txt.gz
Theta_e
329 328 328 327 327 326 326 327 323 324 318 308 304 302 303 304 305 305 306 306 307 307 307 307 307 307 306 306 306 306 307 308 309 308 309 310 307 306 306 306 313 318 323
328 328 327 326 321 325 325 325 323 322 321 319 310 304 302 303 304 305 305 306 306 306 307 307 307 306 306 307 311 313 314 309 309 307 306 310 313 313 313 310 308 310 317
328 327 326 326 325 324 326 325 324 324 323 323 322 315 306 303 302 303 304 305 306 306 306 306 306 306 306 311 318 320 316 308 308 306 306 306 305 307 308 306 306 306 307
328 328 327 326 325 325 324 322 323 326 323 321 321 321 316 307 304 302 302 303 304 305 306 306 306 305 305 307 314 317 310 313 309 307 306 306 308 308 308 305 304 304 305
327 327 327 326 326 325 323 323 323 324 324 321 319 319 318 313 307 305 302 301 302 303 304 305 305 305 305 305 309 309 311 315 313 310 306 305 306 307 306 303 302 302 303
323 323 323 324 325 325 325 323 322 323 322 319 318 317 316 316 314 311 307 304 301 301 302 303 304 304 304 304 305 307 307 315 315 313 307 304 302 302 303 300 300 300 301
319 320 320 321 321 321 322 321 320 319 317 317 316 315 314 314 314 314 314 311 306 302 300 301 302 302 303 303 303 305 307 315 315 314 309 304 301 300 299 300 299 299 300
315 315 315 316 317 317 318 317 317 316 315 314 313 311 311 311 310 305 302 301 301 302 302 300 300 301 301 302 302 303 304 307 313 314 312 309 301 299 298 298 299 299 299
310 311 311 312 312 312 312 312 312 311 311 311 310 309 307 304 307 309 309 308 307 300 299 299 299 299 299 300 301 301 302 303 304 307 312 312 306 299 297 297 297 298 299
303 303 303 303 304 307 308 307 308 307 307 307 307 307 306 304 302 302 304 307 308 308 306 302 299 299 298 298 299 299 300 300 301 302 304 309 309 302 297 296 296 296 297
300 300 300 300 300 300 300 300 300 300 301 303 304 304 304 304 304 302 301 301 305 307 307 305 303 301 300 299 298 299 299 299 299 299 300 302 307 303 300 297 296 295 296
293 293 292 292 292 292 292 293 294 296 297 298 298 300 301 301 301 301 300 301 301 302 304 306 306 306 305 301 299 298 298 298 298 298 297 298 299 300 300 299 296 295 297
291 291 290 290 290 289 289 288 288 289 289 289 291 294 296 297 298 299 299 299 299 299 300 301 303 304 305 306 305 301 298 298 298 298 297 297 296 297 297 298 298 295 296
290 289 289 288 288 288 288 288 288 287 287 287 287 287 287 288 289 292 294 295 296 296 297 297 298 299 301 303 304 305 303 298 298 298 298 297 296 296 296 296 297 295 294
289 288 288 288 288 287 287 287 287 287 287 287 287 287 286 287 287 287 286 288 292 293 294 295 295 296 297 298 299 301 302 303 299 297 297 297 296 296 295 295 295 294 294
288 288 288 287 286 286 286 286 286 286 286 286 286 286 286 286 286 286 286 286 286 286 290 290 292 294 295 295 296 297 299 301 301 298 296 296 296 296 296 295 294 294 294
287 286 286 286 286 286 285 285 285 285 286 286 285 285 285 285 285 285 286 285 285 285 285 286 287 287 288 290 294 296 296 297 299 301 299 296 295 295 295 296 295 294 293
285 285 285 285 285 285 285 285 285 285 285 285 284 284 284 284 284 284 284 284 284 284 284 284 286 286 287 287 287 288 294 296 296 297 300 300 296 295 295 295 295 294 293
285 285 285 285 285 285 284 284 284 284 284 285 285 285 285 284 284 284 284 283 283 283 283 283 284 285 286 286 286 287 287 289 295 296 296 298 299 298 296 295 295 295 295
285 284 284 284 284 284 284 284 284 284 284 284 283 283 283 282 282 282 281 282 282 283 282 282 282 283 284 285 285 285 286 287 287 290 296 295 296 298 298 296 295 295 295
284 284 284 283 283 283 284 283 283 283 282 282 282 281 279 278 278 279 279 279 279 280 281 282 282 283 284 284 284 285 285 285 286 286 288 295 296 295 297 297 295 295 295
283 283 283 283 283 283 283 282 281 281 280 279 279 278 276 276 275 275 277 278 279 280 280 280 280 281 282 283 284 285 285 285 285 286 286 288 293 296 295 296 297 295 295
283 283 283 282 283 282 281 281 280 278 278 276 275 274 273 273 272 272 273 274 275 276 277 277 278 278 279 280 282 283 284 285 285 285 285 285 286 287 293 295 295 295 295
282 282 282 282 282 281 280 279 278 276 275 274 272 271 271 271 271 271 272 273 273 274 274 275 275 276 276 277 278 280 281 282 283 284 285 285 286 286 287 292 295 294 294
282 282 282 282 281 280 278 278 276 274 272 271 271 271 271 271 271 272 273 273 273 273 274 274 275 276 277 278 279 279 280 282 283 284 285 285 285 286 287 287 290 294 294
281 281 281 280 279 279 277 276 275 271 271 271 271 271 271 271 272 273 273 273 273 273 273 274 275 275 275 275 275 277 278 279 281 284 285 286 285 286 286 286 286 289 292

GFSMA_850_thetae_042.txt.gz
Theta_e
326 326 329 326 325 325 324 322 322 323 323 323 322 321 319 311 305 302 303 304 305 305 305 306 305 306 307 307 307 310 310 312 309 308 308 308 310 309 308 307 308 308 307
330 329 328 328 329 327 325 323 322 323 322 322 322 322 320 320 319 313 305 302 303 303 304 305 305 305 307 314 315 316 317 316 309 307 308 307 310 313 311 310 309 309 308
326 326 326 324 328 326 327 325 327 324 322 321 322 322 321 320 320 319 318 309 304 302 302 303 304 304 305 306 319 320 319 319 316 308 307 307 307 308 307 307 306 307 308
323 324 326 326 325 324 326 325 326 324 322 321 323 322 322 320 319 319 318 317 312 305 303 302 302 303 303 304 307 316 318 319 318 316 310 308 307 310 310 309 306 305 305
323 323 323 323 323 323 324 324 324 323 322 322 320 321 320 319 318 318 317 317 316 315 311 305 302 301 302 302 304 311 317 318 317 317 314 312 309 306 307 308 308 303 302
318 318 318 318 318 319 319 320 320 320 320 320 319 318 317 316 316 315 315 314 314 314 314 314 309 304 300 301 302 303 308 312 317 314 315 315 312 310 306 305 307 303 302
316 316 316 316 316 316 315 315 316 315 315 314 313 313 314 313 312 311 311 310 307 306 305 305 305 306 304 300 300 301 302 305 310 311 318 316 314 313 312 304 301 303 303
309 309 310 310 311 312 312 312 311 310 310 310 309 309 310 309 308 308 308 308 308 308 308 308 308 305 302 301 300 299 300 301 303 307 315 318 317 316 314 312 306 302 304
304 304 304 304 304 304 304 303 303 302 302 302 303 304 306 307 303 305 305 305 305 305 305 305 305 306 307 304 300 299 299 299 299 301 304 313 313 314 313 312 311 306 302
300 300 299 299 299 298 298 297 295 295 295 295 297 298 299 300 301 302 302 301 301 300 301 301 302 302 304 305 307 305 301 299 298 298 299 300 305 309 311 310 311 310 302
294 294 294 293 293 292 292 292 291 291 291 290 290 289 289 292 296 295 296 296 293 292 293 292 292 297 299 301 303 305 306 306 303 299 298 298 298 299 301 307 310 310 310
294 294 293 293 292 291 291 290 290 289 289 288 288 288 287 287 288 289 289 290 289 290 289 290 291 291 293 296 299 300 302 304 305 304 302 299 298 298 298 299 304 310 310
293 292 291 290 290 289 289 288 288 287 287 287 287 286 286 286 286 286 287 288 288 287 288 290 289 291 290 291 293 295 298 300 301 303 303 303 301 298 298 298 298 302 310
291 290 289 288 288 287 287 286 286 286 286 286 286 286 286 286 285 285 284 285 286 287 287 288 289 290 289 290 290 290 290 291 296 298 300 302 302 302 298 298 298 297 303
289 288 288 287 287 286 286 286 286 286 286 286 286 286 286 286 286 285 285 284 285 285 286 287 287 288 289 287 288 288 289 289 289 290 295 298 300 302 301 298 297 297 297
288 288 287 287 286 286 285 285 285 285 286 286 286 286 285 285 285 285 285 284 284 284 284 285 285 285 285 285 286 287 287 288 289 289 289 290 295 298 300 301 298 297 296
288 287 287 286 285 285 285 285 285 285 285 285 285 285 285 285 284 284 284 283 283 282 283 283 284 284 285 285 285 285 286 287 287 288 288 289 289 291 296 298 300 298 296
288 287 287 286 285 285 285 284 284 284 284 284 284 284 284 284 284 283 282 282 281 281 281 281 282 282 283 284 284 284 285 286 286 286 287 287 288 288 289 294 297 299 298
288 288 287 286 285 284 284 284 284 284 284 284 284 284 283 283 282 281 280 280 279 279 279 280 280 281 281 281 282 283 284 284 285 286 286 286 286 287 288 288 291 296 298
288 288 288 286 285 284 283 283 283 283 283 283 283 283 283 282 281 280 279 278 277 277 277 278 278 279 280 281 281 281 282 284 285 285 285 286 286 286 287 287 288 288 294
288 288 288 287 285 283 283 283 283 283 283 283 283 282 282 281 280 279 277 275 275 275 275 275 276 277 278 279 280 280 280 281 281 282 282 284 286 286 286 286 287 287 288
288 288 288 287 285 283 283 283 282 282 282 282 282 281 281 279 278 277 275 273 273 274 274 274 274 275 276 277 277 277 278 278 279 280 282 284 285 285 286 286 286 286 287
288 288 287 287 285 283 282 282 282 282 282 281 281 280 279 278 277 275 273 273 273 273 274 275 275 275 275 275 276 276 276 277 277 278 279 279 280 280 281 283 285 285 286
288 287 287 287 286 282 282 282 282 281 281 281 280 279 278 277 275 273 273 274 274 274 274 275 275 275 275 275 275 276 276 277 277 277 278 278 280 280 281 282 283 284 284
287 287 287 286 286 282 281 281 281 281 280 280 279 278 277 275 273 274 275 275 275 275 276 276 276 276 276 277 277 277 277 277 277 277 277 277 278 278 278 279 280 283 285
287 286 286 286 285 283 281 281 280 280 280 279 278 277 274 274 274 275 275 276 277 277 276 276 277 277 277 277 276 276 276 276 276 276 277 277 277 277 277 278 282 283 284

GFSMA_850_thetae_048.txt.gz
Theta_e
328 328 328 328 329 327 326 325 324 323 322 321 321 321 321 320 320 320 320 319 318 316 309 303 303 304 305 308 318 315 310 310 309 309 308 307 307 307 308 308 308 306 306
328 326 327 326 325 325 326 327 325 325 323 323 322 321 321 321 321 320 320 319 319 318 318 317 312 304 302 303 305 312 319 320 320 315 313 309 308 307 307 307 308 308 308
326 325 324 324 322 323 323 325 324 325 324 324 324 322 321 321 321 320 319 319 317 317 316 316 315 315 312 303 302 304 309 317 319 318 317 313 309 308 307 306 306 307 306
322 321 322 322 323 324 324 322 323 322 322 322 321 320 320 319 319 318 317 316 315 314 314 313 313 313 313 312 303 301 303 307 317 322 318 317 315 312 310 310 308 305 306
321 321 320 320 320 319 320 319 319 318 318 317 316 316 315 315 315 314 313 312 311 309 307 306 306 307 307 307 307 302 300 303 312 315 319 317 316 315 313 313 312 309 307
317 317 318 318 316 316 315 314 313 313 312 312 312 311 310 311 310 310 309 308 307 307 307 307 307 307 307 307 305 303 301 299 302 312 316 317 316 316 313 315 315 314 314
314 314 312 311 310 309 308 308 308 307 306 305 305 306 311 310 308 306 306 306 304 304 304 302 300 300 300 302 305 306 304 300 299 300 304 313 313 314 315 317 317 314 314
307 306 306 305 304 304 303 302 301 300 300 299 298 302 305 306 307 305 303 303 301 298 298 293 294 294 293 293 295 299 302 305 303 299 298 299 305 311 311 311 316 317 315
303 302 302 301 299 298 297 297 296 296 295 295 295 295 297 298 294 303 298 300 293 294 292 291 291 291 291 292 292 293 294 298 301 304 304 300 298 298 302 309 312 315 316
299 298 297 296 296 295 295 295 294 293 293 293 292 291 290 290 294 295 291 291 290 289 289 289 289 289 290 290 290 291 291 292 296 299 301 303 303 301 298 298 304 310 313
297 296 296 296 295 295 294 293 293 292 292 291 290 289 289 288 288 287 287 287 288 288 288 288 288 288 287 288 288 288 290 290 290 291 290 290 296 302 303 301 298 298 300
296 296 295 295 294 294 294 293 293 292 291 290 288 288 287 286 286 286 286 286 286 287 287 287 287 286 286 288 288 289 289 288 289 290 289 289 289 289 294 300 302 300 298
295 295 295 294 294 293 292 291 290 290 289 288 287 287 286 286 286 285 285 285 285 286 286 287 287 286 286 286 287 287 286 286 287 287 287 288 288 288 289 289 294 300 302
295 294 294 293 292 291 290 289 289 288 287 286 286 286 286 286 285 285 284 284 284 284 284 284 285 285 284 284 285 285 285 284 285 286 286 287 287 288 288 288 289 290 295
294 293 292 291 291 290 289 288 287 287 286 286 285 285 285 285 285 284 284 283 282 282 283 284 283 283 283 283 283 284 284 284 283 284 285 285 286 286 287 287 287 288 289
293 291 291 290 289 289 288 288 287 286 286 285 285 285 284 284 284 284 284 283 282 281 281 283 282 282 281 282 282 281 282 283 283 283 283 284 285 285 286 287 287 287 287
291 290 290 289 289 289 288 288 287 286 285 284 284 284 284 284 284 284 283 283 282 281 280 284 281 281 281 280 280 282 281 280 280 281 281 282 284 285 286 287 288 288 287
290 290 289 289 289 288 288 287 287 286 285 284 284 284 284 284 283 283 283 283 282 281 280 281 281 281 280 278 278 279 280 279 279 279 282 283 284 285 285 286 286 287 288
290 289 289 289 288 288 288 287 287 286 285 284 283 283 283 283 283 283 282 282 282 281 280 280 281 279 279 278 277 277 277 278 277 277 278 278 279 281 282 284 284 285 286
289 289 289 288 288 288 288 287 287 287 286 284 283 283 283 283 282 282 282 282 282 281 280 279 279 278 277 277 276 276 276 276 277 277 277 277 277 278 279 280 281 284 286
289 289 288 288 288 288 288 287 287 286 286 286 284 283 282 282 282 282 281 281 280 280 278 277 276 276 276 276 276 276 276 276 277 277 277 277 277 277 277 278 279 280 283
289 289 288 288 288 288 287 287 287 287 286 286 285 283 282 282 282 281 281 280 278 277 277 276 276 276 276 276 276 276 276 276 276 277 277 278 278 278 278 278 278 280 280
289 289 288 288 288 287 287 287 287 287 286 286 285 283 282 281 281 280 280 279 279 278 276 276 276 276 276 277 276 276 277 277 277 277 278 278 277 277 277 277 278 279 279
288 288 288 288 288 287 287 287 287 287 286 286 285 283 282 281 280 280 280 279 278 277 277 276 275 275 275 276 277 277 277 276 276 277 277 276 276 276 276 276 277 278 279
288 288 288 287 287 287 286 286 286 286 286 286 284 282 281 280 279 279 277 277 277 278 276 276 276 274 274 274 274 274 274 275 275 276 276 276 276 276 276 276 277 277 278
288 288 288 288 287 287 286 286 286 286 286 285 284 282 281 279 278 277 277 276 276 276 275 276 275 275 275 275 275 274 274 274 275 275 276 276 276 276 276 276 278 278 278